• Join FlightAware (Why Join?)
  • Login
  • US Flag 
06:11PM EDT


 

Airport Tracker/Info


-or-


 

Live Flight TrackerFlight Track Log ✈ AMF1324 ✈ 12-Nov-2013 ✈ KBUF - KBGM

Flight Track Log - Related Links

Times and Time Zones

All times are in EST time to prevent confusion due to time zone crossing. See the AMF1324 flight status page for this flight to view local times or setup timezone preferences in your user account.

Time Position Orientation Groundspeed Altitude Reporting Facility
EST Latitude Longitude Course Direction KTS MPH feet Rate Location/Type
07:17AM 42.9500 -78.7167 90° East 145 167 1,400  Level Buffalo TRACON
07:17AM 42.9500 -78.7000 90° East 149 171 1,700 1,860 Climbing Buffalo TRACON
07:19AM 42.9606 -78.6233 79° East 192 221 4,100 1,800 Climbing Cleveland Center
07:20AM 42.9447 -78.5511 107° East 190 219 6,000 1,560 Climbing Cleveland Center
07:21AM 42.9292 -78.4733 105° East 201 231 7,400 1,380 Climbing Cleveland Center
07:22AM 42.9106 -78.3917 107° East 216 249 8,900 1,380 Climbing Cleveland Center
07:23AM 42.8953 -78.3119 105° East 220 253 10,300 1,440 Climbing Cleveland Center
07:24AM 42.8842 -78.2336 101° East 210 242 11,900 1,260 Climbing Cleveland Center
07:25AM 42.8736 -78.1547 100° East 213 245 13,000 480 Climbing Cleveland Center
07:26AM 42.8631 -78.0614 99° East 252 290 12,900 -60 Descending Cleveland Center
07:27AM 42.8550 -77.9642 96° East 259 298 12,900  Level Cleveland Center
07:28AM 42.8467 -77.8633 96° East 267 307 13,000  Climbing Cleveland Center
07:29AM 42.8397 -77.7614 95° East 268 308 13,000  Level Cleveland Center
07:30AM 42.8056 -77.6453 112° Southeast 274 315 13,000 -60 Level Cleveland Center
07:31AM 42.7681 -77.5519 119° Southeast 277 319 12,900 -60 Descending Cleveland Center
07:32AM 42.7294 -77.4589 119° Southeast 279 321 12,900 60 Level Cleveland Center
07:33AM 42.6922 -77.3678 119° Southeast 274 315 13,100 60 Climbing Cleveland Center
07:34AM 42.6556 -77.2761 119° Southeast 274 315 13,100  Level Cleveland Center
07:35AM 42.6172 -77.1850 120° Southeast 276 318 13,100  Level Cleveland Center
07:36AM 42.5753 -77.0958 123° Southeast 278 320 13,100  Level Cleveland Center
07:37AM 42.5342 -77.0075 122° Southeast 278 320 13,100 -60 Level Cleveland Center
07:38AM 42.4922 -76.9169 122° Southeast 284 327 13,000 -60 Descending Cleveland Center
07:39AM 42.4531 -76.8250 120° Southeast 283 326 13,000 -300 Level Cleveland Center
07:40AM 42.4300 -76.7653 118° Southeast 286 329 12,600 -1,140 Descending New York Center
07:41AM 42.3872 -76.6631 120° Southeast 292 336 11,300 -1,320 Descending New York Center
07:41AM 42.3628 -76.6064 120° Southeast 312 359 10,700 -900 Descending Cleveland Center
07:42AM 42.3217 -76.5086 120° Southeast 304 350 10,000 -780 Descending Cleveland Center
07:43AM 42.2961 -76.4064 109° East 291 335 9,100 -900 Descending Cleveland Center
07:44AM 42.2644 -76.3131 115° Southeast 285 328 8,200 -1,080 Descending Cleveland Center
07:45AM 42.2267 -76.2178 118° Southeast 287 330 7,000 -1,320 Descending Cleveland Center
07:46AM 42.1831 -76.1067 118° Southeast 284 327 5,500 960 Descending Cleveland Center
07:47AM 42.1475 -76.0192 119° Southeast 275 316 9,000 -1,020 Climbing Cleveland Center
07:49AM 42.1442 -75.9367 93° East 195 224 3,200 -2,700 Descending New York Center
07:50AM 42.1556 -75.9094 61° Northeast 127 146 2,700 -540 Descending New York Center